Content
SEND FEEDBACK

Daily
Averages
Monthly
Summary
United States of America

DERBY, KANSAS


Home > North America > United States > Kansas
Elevation: 1371 feet     Latitude: 37 37N     Longitude: 097 16W

WEATHER
 
SELECT A DAY
Number of Records: 382,380;   Date Range: 1/3/95 - 7/26/14
 
SHARE

PRINT THIS DATA

[ ← Previous Day ]
WEATHER ALMANAC - FEBRUARY 28, 2013
[ Next Day → ]
[ °C ]   °F
Weather ElementAverageHighLow
Temperature31.8 °F34.7 °F (12:55 pm)27.7 °F (4:55 am)
Dewpoint27.8 °F30.2 °F (11:39 am)24.8 °F (5:14 am)
Humidity85.4 %96 % (2:55 am)80 % (12:55 pm)
Barometer30.24 in30.27 in (7:55 pm)30.21 in (1:55 am)
Wind Speed12.1 mph21.9 mph (10:55 am)
Wind Gust19.6 mph (12:02 pm)
Weather ElementAverage
Visibility10 mi
Wind DirectionWNW (291 °)

Weather ElementTotal
Precipitation---
Heating Degree Days33.8 (Base 65)
Averaged from 29 records on February 28, 2013
WEATHER CONDITIONS BREAKOUT
WIND DIRECTION BREAKOUT
WEATHER BY HOUR - FEBRUARY 28, 2013
[ °C ]   °F
Local TimeTemperatureDewpointHumidityBarometerVisibilityWind DirectionWind SpeedGust SpeedPrecipitationEventsConditions
1:55 AM29.8 °F27.5 °F91 %30.21 in10.0 miNW (320°)9.2 mphClear
2:55 AM27.9 °F26.8 °F96 %30.21 in10.0 miNW (310°)6.9 mphClear
3:55 AM28.0 °F25.9 °F92 %30.21 in10.0 miNW (310°)9.2 mphClear
4:55 AM27.7 °F25.5 °F92 %30.22 in10.0 miWNW (300°)6.9 mphClear
5:14 AM28.4 °F24.8 °F86 %30.22 in10.0 miNW (320°)9.2 mphMostly Cloudy
5:47 AM28.4 °F24.8 °F86 %30.22 in10.0 miNNW (330°)12.7 mphScattered Clouds
5:55 AM27.9 °F25.2 °F90 %30.22 in10.0 miNNW (330°)10.4 mphScattered Clouds
6:05 AM28.4 °F24.8 °F86 %30.23 in10.0 miNNW (340°)13.8 mphMostly Cloudy
6:55 AM28.9 °F26.2 °F90 %30.22 in10.0 miNW (320°)11.5 mphOvercast
7:55 AM30.0 °F27.3 °F90 %30.23 in10.0 miNNW (340°)9.2 mphOvercast
8:55 AM31.5 °F28.0 °F87 %30.24 in10.0 miNW (320°)13.8 mphOvercast
9:55 AM32.4 °F28.6 °F86 %30.26 in10.0 miNorth (350°)13.8 mphOvercast
10:55 AM33.6 °F29.3 °F84 %30.25 in10.0 miNorth (360°)21.9 mphOvercast
11:39 AM33.8 °F30.2 °F87 %30.25 in10.0 miNorth (10°)18.4 mphOvercast
11:55 AM34.5 °F29.3 °F81 %30.25 in10.0 miNorth (350°)13.8 mphOvercast
12:02 PM33.8 °F30.2 °F87 %30.25 in10.0 miNorth (10°)13.8 mph19.6 mphOvercast
12:25 PM33.8 °F30.2 °F87 %30.26 in10.0 miNNW (340°)16.1 mphOvercast
12:55 PM34.7 °F29.1 °F80 %30.26 in10.0 miNNW (330°)11.5 mphOvercast
1:55 PM34.3 °F29.1 °F81 %30.25 in10.0 miNNW (330°)15.0 mphOvercast
2:55 PM34.3 °F29.3 °F82 %30.25 in10.0 miNNW (340°)15.0 mphOvercast
3:55 PM34.0 °F28.9 °F82 %30.26 in10.0 miNNW (340°)13.8 mphOvercast
4:55 PM34.0 °F29.1 °F82 %30.25 in10.0 miNNW (340°)13.8 mphOvercast
5:55 PM33.4 °F28.2 °F81 %30.25 in10.0 miNorth (350°)13.8 mphOvercast
6:55 PM33.1 °F27.9 °F81 %30.26 in10.0 miNorth (360°)11.5 mphOvercast
7:55 PM33.1 °F27.9 °F81 %30.27 in10.0 miNorth (350°)8.1 mphOvercast
8:55 PM33.3 °F27.9 °F81 %30.27 in10.0 miNorth (360°)8.1 mphOvercast
9:55 PM33.3 °F28.4 °F82 %30.27 in10.0 miNorth (10°)9.2 mphOvercast
10:55 PM33.1 °F28.2 °F82 %30.26 in10.0 miNorth (10°)10.4 mphOvercast
11:55 PM32.4 °F28.2 °F85 %30.26 in10.0 miNorth (360°)11.5 mphOvercast
Hourly data recorded from KIAB, located miles away from Derby, Kansas







STORIES FROM OUR PARTNERS